Regional Weather Roundup
Issued by NWS

Home | Current Version | Previous Version | Text Only | Print | Product List | Glossary Off
Versions: 1 2 3 4 5 6 7 8 9 10 11 12 13 14 15 16 17 18 19 20 21 22 23 24 25 26 27 28 29 30 31 32 33 34 35 36 37 38 39 40 41 42 43 44 45 46 47 48 49 50

000
ASUS43 KDMX 312108
RWRIA

WEATHER ROUNDUP FOR IOWA
NATIONAL WEATHER SERVICE DES MOINES IA
400 PM CDT TUE MAY 31 2016

NOTE: "FAIR" INDICATES FEW OR NO CLOUDS BELOW 12,000 FEET WITH NO
SIGNIFICANT WEATHER AND/OR OBSTRUCTIONS TO VISIBILITY.

* - THESE STATIONS ARE NOT NWS STATIONS...THUS NOT UNDER NWS
QUALITY CONTROL.  THEY ALSO DO NOT REPORT WEATHER SUCH
AS PRECIPITATION OR FOG.

IAZ001>003-012>014-020>022-031>034-043>046-312200-
   NORTHWEST IOWA

CITY           SKY/WX    TMP DP  RH WIND       PRES   REMARKS
CARROLL *      MOSUNNY   73  59  60 NW15      29.90F
CHEROKEE *     MOSUNNY   72  52  49 NW6G16    29.91S
DENISON *      MOSUNNY   70  59  68 NW8G16    29.90F
LE MARS *      SUNNY     72  50  46 W8        29.92F
ORANGE CITY *  SUNNY     72  52  49 W8        29.91F
SHELDON *      SUNNY     72  52  49 NW13      29.89F
SIOUX CITY     SUNNY     77  47  34 NW10      29.91F
SPENCER        MOSUNNY   72  52  49 W13       29.90F
STORM LAKE *     N/A     70  54  56 NW14G20   29.92S
$$

IAZ055>058-069>071-079>083-090>094-312200-
   SOUTHWEST IOWA

CITY           SKY/WX    TMP DP  RH WIND       PRES   REMARKS
ATLANTIC *     SUNNY     73  61  64 NW8       29.91S
AUDUBON *        N/A     73  63  68 NW6       29.92S
CLARINDA *       N/A     77  64  65 MISG      29.92S
COUNCIL BLFS * PTSUNNY   73  59  60 N9        29.92F
CRESTON *      LGT RAIN  66  64  94 N7        29.91S
HARLAN  *      PTSUNNY   72  59  64 NW10G18   29.95S
LAMONI         CLOUDY    73  64  73 SW8       29.89F
RED OAK *      MOSUNNY   75  63  64 NW12      29.91S
SHENANDOAH *   PTSUNNY   77  64  65 NW8       29.91F
$$

IAZ047>049-059>061-072>074-084-312200-
   CENTRAL IOWA

CITY           SKY/WX    TMP DP  RH WIND       PRES   REMARKS
AMES           RAIN      66  64  93 NW7       29.89S FOG
ANKENY *       HVY RAIN  66  66 100 NW12G21   29.89R
BOONE *        CLOUDY    68  64  88 N12       29.89F
CHARITON *     MOSUNNY   75  63  64 SW13      29.88F
DES MOINES     RAIN      68  64  87 NW24      29.88R
GRINNELL*      CLOUDY    77  57  50 S16       29.88S
KNOXVILLE *    MOSUNNY   77  61  57 S14       29.86F
MARSHALLTOWN   CLOUDY    78  61  55 SW15      29.85F HX  80
NEWTON *       CLOUDY    77  61  57 SW16G22   29.87S
PERRY *        PTSUNNY   72  64  78 NW10      29.90S
$$

IAZ004>006-015-016-023>025-035-036-312200-
   NORTH CENTRAL IOWA

CITY           SKY/WX    TMP DP  RH WIND       PRES   REMARKS
ALGONA *       MOSUNNY   68  59  73 VRB3      29.91S
CLARION *      CLOUDY    66  61  82 NW9       29.91S
ESTHERVILLE    CLOUDY    71  57  61 W13       29.89F
FORT DODGE *   CLOUDY    70  59  68 NW7       29.92S
MASON CITY     CLOUDY    69  63  81 W12       29.91R
FOREST CITY *  CLOUDY    64  59  82 W9        29.91R
WEBSTER CITY * CLOUDY    68  63  83 NW12      29.89S
IOWA FALLS *   RAIN      66  63  88 W9        29.92S
$$

IAZ007>011-017>019-026>030-037>042-050>054-066-312200-
   NORTHEAST IOWA

CITY           SKY/WX    TMP DP  RH WIND       PRES   REMARKS
CEDAR RAPIDS   CLOUDY    78  62  57 S14G21    29.88F HX  80
CHARLES CITY * RAIN      66  64  94 NW10      29.89F
CLINTON *        N/A     72  63  73 SE16      29.93F
DECORAH *      PTSUNNY   77  63  61 S10G17    29.85F
DUBUQUE        CLOUDY    70  63  78 SE14      29.92F
MONTICELLO *   PTSUNNY   73  64  73 SE16G24   29.90F
OELWEIN *      SUNNY     79  61  53 S18G24    29.87F HX  80
WATERLOO       CLOUDY    78  59  51 S12       29.84F
$$

IAZ064-065-067-068-078-312200-
   EAST CENTRAL IOWA

CITY           SKY/WX    TMP DP  RH WIND       PRES   REMARKS
DAVENPORT      CLOUDY    78  63  59 E13       29.92F HX  80
IOWA CITY      CLOUDY    78  59  51 SE14      29.90F
MT. PLEASANT * PTSUNNY   82  61  47 S10       29.90F HX  83
MUSCATINE *    CLOUDY    81  59  47 SW7       29.90F HX  81
QUAD CITIES    LGT RAIN  76  63  64 SE12      29.91F
$$

IAZ062-063-075>077-085>089-095>099-312200-
   SOUTHEAST IOWA

CITY           SKY/WX    TMP DP  RH WIND       PRES   REMARKS
BURLINGTON     CLOUDY    77  62  59 S7        29.90F
FAIRFIELD *      N/A    N/A N/A N/A MISG        N/A
FORT MADISON * MOSUNNY   81  61  50 SW8       29.91F HX  81
KEOKUK *       PTSUNNY   81  61  50 S8        29.90F HX  81
OSKALOOSA *      N/A     81  59  47 S14G20    29.88F HX  81
OTTUMWA        CLOUDY    79  61  53 S12       29.88F HX  80
WASHINGTON *   PTSUNNY   79 -33   1 S8        29.91F
$$

ABBREVIATIONS USED IN REMARKS
   TC - TEMPERATURES IN CELSIUS
  WCI - WIND CHILL INDEX
   HX - HEAT INDEX
  VSB - VISIBILITY
$$





USA.gov is the U.S. government's official web portal to all federal, state and local government web resources and services.